{"data":{"norad_id":62650,"epoch":"2026-05-25T03:43:16.089312Z","epoch_age_seconds":68545,"freshness":"FRESH","line1":"1 62650U 25009AT  26145.15504733  .00010156  00000+0  36606-3 0  9997","line2":"2 62650  97.3963 226.8852 0002806  67.7298 292.4239 15.28736708 75398","mean_motion":15.28736708,"eccentricity":0.0002806,"inclination_deg":97.3963,"raan_deg":226.8852,"arg_perigee_deg":67.7298,"mean_anomaly_deg":292.4239,"bstar":0.00036606,"rev_number":7539,"period_min":94.195422433724,"perigee_km":477.66340272647,"apogee_km":481.51195781703,"semimajor_km":6857.7246802718,"source":"CELESTRAK","updated_at":"2026-05-25T13:38:13.339947Z"}}